sat.trackr.live / text

‹ back to catalog

STARLINK-1411

NORAD 45706 · 2020-035BB

PAYLOAD ACTIVE UNKNOWN

§ Identity

Operator
Country
US
Launch date
2020-06-04
Launch site
AFETR
Launch vehicle
Mass (kg)
RCS (m²)

Purposes: comms

External: N2YO · Heavens-Above · Gunter

§ Orbital elements

Epoch: 2026-05-25T06:00:02.000160Z

Period
90.94 min
Inclination
53.0327°
Eccentricity
0.0003554
Mean motion
15.83510618 rev/d
Perigee alt
318.1 km
Apogee alt
322.9 km
Semi-major
6,698.7 km
B*
8.8422e-4
RAAN
321.8464°
Arg perigee
277.0755°
Mean anomaly
63.7080°
Rev number
599

§ Raw data

STARLINK-14111 45706U 20035BB  26145.25002315  .00201383  00000+0  88422-3 0  99912 45706  53.0327 321.8464 0003554 277.0755  63.7080 15.83510618  5997

JSON: /api/v1/satellites/45706 · /tle

For live sub-satellite position, see the globe view (requires WebGL).

§ Visibility from observer

Set your observer location to see the next 7 days of passes ≥ 10°. The values pass through the URL so the page stays shareable.

No JS? Fill the form by hand. The geolocation button needs JavaScript.